Taunton, MA

11:42 PM EDT on July 21, 2017 (GMT -0400)
Taunton Municipal

Weather History for KTAN - October, 2010

Change the Weather History Date:

Saturday, October 23, 2010

  Actual Average Record
Temperature  
Mean Temperature 44 °F -  
Max Temperature 60 °F 61 °F 78 °F (1978)
Min Temperature 28 °F 36 °F 22 °F (1983)
Degree Days  
Heating Degree Days 22    
Moisture  
Dew Point 34 °F    
Average Humidity 67    
Maximum Humidity 97    
Minimum Humidity 42    
Precipitation  
Precipitation 0.00 in - - ()
Sea Level Pressure  
Sea Level Pressure 30.05 in    
Wind  
Wind Speed 5 mph (West)    
Max Wind Speed 14 mph    
Max Gust Speed 23 mph    
Visibility 10 miles    
Events      
Averages and records for this station are not official NWS values.
T = Trace of Precipitation, MM = Missing Value Source: NWS Daily Summary

Daily Weather History Graph

Daily Weather History Graph

Search for Another Location

Airport or City:

Trip Planner

Search our weather history database for the weather conditions in past years. The results will help you decide how hot, cold, wet, or windy it might be!

Date:

Astronomy

Oct. 23, 2010 Rise Set
Actual Time 7:05 AM EDT 5:50 PM EDT
Civil Twilight 6:37 AM EDT 6:18 PM EDT
Nautical Twilight 6:04 AM EDT 6:51 PM EDT
Astronomical Twilight 5:32 AM EDT 7:23 PM EDT
Moon 5:49 PM EDT (10/23) 7:44 AM EDT (10/23)
Length of Visible Light 11h 41m
Length of Day
10h 44m
Full, 100% of the Moon is Illuminated
Oct 23
Full
Oct 30
Last Quarter
Nov 6
New
Nov 13
First Quarter
Nov 21
Full

Hourly Weather History & Observations

Time (EDT) Temp. Windchill Dew Point Humidity Pressure Visibility Wind Dir Wind Speed Gust Speed Precip Events Conditions
12:52 AM 36.0 °F 32.1 °F 27.0 °F 70% 30.00 in 10.0 mi SW 4.6 mph - N/A   Clear
1:52 AM 36.0 °F 32.1 °F 27.0 °F 70% 30.01 in 10.0 mi WSW 4.6 mph - N/A   Clear
2:52 AM 36.0 °F 30.3 °F 28.9 °F 76% 30.01 in 10.0 mi SW 6.9 mph - N/A   Clear
3:52 AM 37.0 °F 33.3 °F 28.9 °F 73% 30.00 in 10.0 mi SW 4.6 mph - N/A   Scattered Clouds
4:52 AM 39.0 °F 36.8 °F 30.0 °F 70% 30.01 in 10.0 mi West 3.5 mph - N/A   Overcast
5:52 AM 36.0 °F - 28.9 °F 76% 30.03 in 10.0 mi Calm Calm - N/A   Clear
6:52 AM 28.9 °F - 28.0 °F 96% 30.04 in 10.0 mi Calm Calm - N/A   Clear
7:52 AM 32.0 °F - 30.9 °F 96% 30.05 in 10.0 mi Calm Calm - N/A   Clear
8:52 AM 43.0 °F 41.3 °F 32.0 °F 65% 30.07 in 10.0 mi West 3.5 mph - N/A   Partly Cloudy
9:52 AM 48.0 °F - 34.0 °F 58% 30.07 in 10.0 mi West 5.8 mph - N/A   Clear
10:52 AM 50.0 °F - 35.1 °F 57% 30.06 in 10.0 mi WNW 9.2 mph 21.9 mph N/A   Scattered Clouds
11:52 AM 53.1 °F - 36.0 °F 52% 30.04 in 10.0 mi WNW 9.2 mph 16.1 mph N/A   Scattered Clouds
12:52 PM 55.9 °F - 35.1 °F 45% 30.03 in 10.0 mi West 13.8 mph 20.7 mph N/A   Partly Cloudy
1:52 PM 57.9 °F - 36.0 °F 44% 30.01 in 10.0 mi WNW 10.4 mph 23.0 mph N/A   Scattered Clouds
2:52 PM 59.0 °F - 36.0 °F 42% 30.00 in 10.0 mi West 11.5 mph 21.9 mph N/A   Scattered Clouds
3:52 PM 59.0 °F - 36.0 °F 42% 30.01 in 10.0 mi West 10.4 mph 17.3 mph N/A   Clear
4:52 PM 57.9 °F - 35.1 °F 42% 30.02 in 10.0 mi West 11.5 mph - N/A   Partly Cloudy
5:52 PM 54.0 °F - 37.0 °F 53% 30.05 in 10.0 mi West 3.5 mph - N/A   Clear
6:52 PM 53.1 °F - 37.0 °F 55% 30.08 in 10.0 mi WNW 4.6 mph - N/A   Mostly Cloudy
7:52 PM 50.0 °F - 39.0 °F 66% 30.10 in 10.0 mi West 3.5 mph - N/A   Overcast
8:52 PM 46.9 °F - 41.0 °F 80% 30.12 in 10.0 mi Calm Calm - N/A   Overcast
9:52 PM 45.0 °F - 41.0 °F 86% 30.12 in 10.0 mi Calm Calm - N/A   Overcast
10:52 PM 41.0 °F - 39.0 °F 93% 30.14 in 10.0 mi Calm Calm - N/A   Overcast
11:52 PM 37.9 °F - 37.0 °F 97% 30.14 in 10.0 mi Calm Calm - N/A   Clear